contact:dominique.lefevre@mio.osupytheas.fr, maurice.libes@osupytheas.fr, didier.mallarino@osupytheas.fr
Project:EMSO http://www.emso-fr.org/EMSO-France
Depth: 2436.0 m
Title:EMSO Ligure Ouest : Data MII capteur MICROCAT
DateTime_Computer,Latitude,Longitude,Temperature,Conductivity,Pressure,DateTime_Instrument
DateTime_Computer,Latitude,Longitude,degC,S m-1,dbar,DateTime_Instrument
2023-11-16T00:00:10Z,42.805,6.029,13.3081,4.60168,2470.684,2023-11-16T02:02:37Z
2023-11-16T00:03:13Z,42.805,6.029,13.3066,4.60179,2470.693,2023-11-16T02:05:40Z
2023-11-16T00:06:16Z,42.805,6.029,13.3082,4.60166,2470.707,2023-11-16T02:08:43Z
2023-11-16T00:09:19Z,42.805,6.029,13.3086,4.60172,2470.67,2023-11-16T02:11:47Z
2023-11-16T00:12:22Z,42.805,6.029,13.3078,4.60149,2470.707,2023-11-16T02:14:50Z
2023-11-16T00:15:25Z,42.805,6.029,13.3076,4.60213,2470.707,2023-11-16T02:17:53Z
2023-11-16T00:18:28Z,42.805,6.029,13.3078,4.60160,2470.707,2023-11-16T02:20:56Z
2023-11-16T00:21:32Z,42.805,6.029,13.3079,4.60198,2470.684,2023-11-16T02:23:59Z
2023-11-16T00:24:35Z,42.805,6.029,13.3070,4.60170,2470.707,2023-11-16T02:27:02Z
2023-11-16T00:27:38Z,42.805,6.029,13.3093,4.60184,2470.67,2023-11-16T02:30:05Z
2023-11-16T00:30:41Z,42.805,6.029,13.3102,4.60183,2470.67,2023-11-16T02:33:08Z
2023-11-16T00:33:44Z,42.805,6.029,13.3067,4.60169,2470.661,2023-11-16T02:36:11Z
2023-11-16T00:36:47Z,42.805,6.029,13.3078,4.60177,2470.684,2023-11-16T02:39:14Z
2023-11-16T00:39:50Z,42.805,6.029,13.3103,4.60188,2470.661,2023-11-16T02:42:17Z
2023-11-16T00:42:53Z,42.805,6.029,13.3092,4.60173,2470.693,2023-11-16T02:45:20Z
2023-11-16T00:45:56Z,42.805,6.029,13.3086,4.60191,2470.684,2023-11-16T02:48:23Z
2023-11-16T00:48:59Z,42.805,6.029,13.3098,4.60142,2470.684,2023-11-16T02:51:27Z
2023-11-16T00:52:02Z,42.805,6.029,13.3101,4.60208,2470.684,2023-11-16T02:54:30Z
2023-11-16T00:55:05Z,42.805,6.029,13.3099,4.60189,2470.67,2023-11-16T02:57:33Z
2023-11-16T00:58:09Z,42.805,6.029,13.3080,4.60198,2470.646,2023-11-16T03:00:36Z
2023-11-16T01:01:12Z,42.805,6.029,13.3090,4.60163,2470.646,2023-11-16T03:03:39Z
2023-11-16T01:04:15Z,42.805,6.029,13.3077,4.60188,2470.661,2023-11-16T03:06:42Z
2023-11-16T01:07:18Z,42.805,6.029,13.3083,4.60180,2470.684,2023-11-16T03:09:45Z
2023-11-16T01:10:21Z,42.805,6.029,13.3089,4.60157,2470.693,2023-11-16T03:12:48Z
2023-11-16T01:13:24Z,42.805,6.029,13.3094,4.60173,2470.661,2023-11-16T03:15:51Z
2023-11-16T01:16:27Z,42.805,6.029,13.3070,4.60158,2470.684,2023-11-16T03:18:54Z
2023-11-16T01:19:30Z,42.805,6.029,13.3067,4.60187,2470.693,2023-11-16T03:21:57Z
2023-11-16T01:22:33Z,42.805,6.029,13.3058,4.60192,2470.693,2023-11-16T03:25:00Z
2023-11-16T01:25:36Z,42.805,6.029,13.3068,4.60180,2470.646,2023-11-16T03:28:03Z
2023-11-16T01:28:39Z,42.805,6.029,13.3086,4.60147,2470.624,2023-11-16T03:31:07Z
2023-11-16T01:31:42Z,42.805,6.029,13.3086,4.60196,2470.693,2023-11-16T03:34:10Z
2023-11-16T01:34:45Z,42.805,6.029,13.3084,4.60200,2470.693,2023-11-16T03:37:13Z
2023-11-16T01:37:49Z,42.805,6.029,13.3082,4.60147,2470.67,2023-11-16T03:40:16Z
2023-11-16T01:40:52Z,42.805,6.029,13.3084,4.60185,2470.693,2023-11-16T03:43:19Z
2023-11-16T01:43:55Z,42.805,6.029,13.3082,4.60185,2470.646,2023-11-16T03:46:22Z
2023-11-16T01:46:58Z,42.805,6.029,13.3084,4.60178,2470.624,2023-11-16T03:49:25Z
2023-11-16T01:50:01Z,42.805,6.029,13.3069,4.60187,2470.67,2023-11-16T03:52:28Z
2023-11-16T01:53:04Z,42.805,6.029,13.3088,4.60227,2470.661,2023-11-16T03:55:31Z
2023-11-16T01:56:07Z,42.805,6.029,13.3084,4.60157,2470.661,2023-11-16T03:58:34Z
2023-11-16T01:59:10Z,42.805,6.029,13.3110,4.60178,2470.637,2023-11-16T04:01:37Z
2023-11-16T02:02:13Z,42.805,6.029,13.3107,4.60195,2470.684,2023-11-16T04:04:40Z
2023-11-16T02:05:16Z,42.805,6.029,13.3114,4.60163,2470.646,2023-11-16T04:07:44Z
2023-11-16T02:08:19Z,42.805,6.029,13.3078,4.60180,2470.661,2023-11-16T04:10:47Z
2023-11-16T02:11:22Z,42.805,6.029,13.3104,4.60161,2470.661,2023-11-16T04:13:50Z
2023-11-16T02:14:25Z,42.805,6.029,13.3104,4.60137,2470.67,2023-11-16T04:16:53Z
2023-11-16T02:17:29Z,42.805,6.029,13.3123,4.60163,2470.646,2023-11-16T04:19:56Z
2023-11-16T02:20:32Z,42.805,6.029,13.3109,4.60187,2470.637,2023-11-16T04:22:59Z
2023-11-16T02:23:35Z,42.805,6.029,13.3111,4.60177,2470.661,2023-11-16T04:26:02Z
2023-11-16T02:26:38Z,42.805,6.029,13.3131,4.60170,2470.624,2023-11-16T04:29:05Z
2023-11-16T02:29:41Z,42.805,6.029,13.3097,4.60162,2470.661,2023-11-16T04:32:08Z
2023-11-16T02:32:44Z,42.805,6.029,13.3104,4.60167,2470.684,2023-11-16T04:35:11Z
2023-11-16T02:35:47Z,42.805,6.029,13.3118,4.60163,2470.67,2023-11-16T04:38:14Z
2023-11-16T02:38:50Z,42.805,6.029,13.3104,4.60148,2470.646,2023-11-16T04:41:17Z
2023-11-16T02:41:53Z,42.805,6.029,13.3092,4.60197,2470.661,2023-11-16T04:44:20Z
2023-11-16T02:44:56Z,42.805,6.029,13.3101,4.60156,2470.6,2023-11-16T04:47:23Z
2023-11-16T02:47:59Z,42.805,6.029,13.3083,4.60187,2470.661,2023-11-16T04:50:27Z
2023-11-16T02:51:02Z,42.805,6.029,13.3087,4.60170,2470.661,2023-11-16T04:53:30Z
2023-11-16T02:54:05Z,42.805,6.029,13.3101,4.60167,2470.661,2023-11-16T04:56:33Z
2023-11-16T02:57:09Z,42.805,6.029,13.3103,4.60142,2470.624,2023-11-16T04:59:36Z
2023-11-16T03:00:12Z,42.805,6.029,13.3078,4.60153,2470.637,2023-11-16T05:02:39Z
2023-11-16T03:03:15Z,42.805,6.029,13.3073,4.60150,2470.661,2023-11-16T05:05:42Z
2023-11-16T03:06:18Z,42.805,6.029,13.3087,4.60144,2470.637,2023-11-16T05:08:45Z
2023-11-16T03:09:21Z,42.805,6.029,13.3079,4.60170,2470.684,2023-11-16T05:11:48Z
2023-11-16T03:12:24Z,42.805,6.029,13.3082,4.60157,2470.661,2023-11-16T05:14:51Z
2023-11-16T03:15:27Z,42.805,6.029,13.3092,4.60148,2470.646,2023-11-16T05:17:54Z
2023-11-16T03:18:30Z,42.805,6.029,13.3085,4.60166,2470.646,2023-11-16T05:20:57Z
2023-11-16T03:21:33Z,42.805,6.029,13.3073,4.60152,2470.624,2023-11-16T05:24:00Z
2023-11-16T03:24:36Z,42.805,6.029,13.3059,4.60150,2470.637,2023-11-16T05:27:04Z
2023-11-16T03:27:39Z,42.805,6.029,13.3067,4.60160,2470.646,2023-11-16T05:30:07Z
2023-11-16T03:30:42Z,42.805,6.029,13.3078,4.60130,2470.661,2023-11-16T05:33:10Z
2023-11-16T03:33:46Z,42.805,6.029,13.3093,4.60123,2470.614,2023-11-16T05:36:13Z
2023-11-16T03:36:49Z,42.805,6.029,13.3067,4.60147,2470.661,2023-11-16T05:39:16Z
2023-11-16T03:39:52Z,42.805,6.029,13.3068,4.60125,2470.637,2023-11-16T05:42:19Z
2023-11-16T03:42:55Z,42.805,6.029,13.3078,4.60127,2470.646,2023-11-16T05:45:22Z
2023-11-16T03:45:58Z,42.805,6.029,13.3116,4.60127,2470.661,2023-11-16T05:48:25Z
2023-11-16T03:49:01Z,42.805,6.029,13.3082,4.60134,2470.684,2023-11-16T05:51:28Z
2023-11-16T03:52:04Z,42.805,6.029,13.3080,4.60132,2470.661,2023-11-16T05:54:31Z
2023-11-16T03:55:07Z,42.805,6.029,13.3074,4.60148,2470.624,2023-11-16T05:57:34Z
2023-11-16T03:58:10Z,42.805,6.029,13.3131,4.60132,2470.646,2023-11-16T06:00:37Z
2023-11-16T04:01:13Z,42.805,6.029,13.3116,4.60125,2470.646,2023-11-16T06:03:41Z
2023-11-16T04:04:16Z,42.805,6.029,13.3100,4.60137,2470.646,2023-11-16T06:06:44Z
2023-11-16T04:07:19Z,42.805,6.029,13.3088,4.60148,2470.646,2023-11-16T06:09:47Z
2023-11-16T04:10:22Z,42.805,6.029,13.3083,4.60145,2470.684,2023-11-16T06:12:50Z
2023-11-16T04:13:26Z,42.805,6.029,13.3097,4.60160,2470.646,2023-11-16T06:15:53Z
2023-11-16T04:16:29Z,42.805,6.029,13.3122,4.60149,2470.661,2023-11-16T06:18:56Z
2023-11-16T04:19:32Z,42.805,6.029,13.3121,4.60155,2470.661,2023-11-16T06:21:59Z
2023-11-16T04:22:35Z,42.805,6.029,13.3080,4.60138,2470.624,2023-11-16T06:25:02Z
2023-11-16T04:25:38Z,42.805,6.029,13.3091,4.60140,2470.684,2023-11-16T06:28:05Z
2023-11-16T04:28:41Z,42.805,6.029,13.3082,4.60151,2470.646,2023-11-16T06:31:08Z
2023-11-16T04:31:44Z,42.805,6.029,13.3093,4.60147,2470.661,2023-11-16T06:34:11Z
2023-11-16T04:34:47Z,42.805,6.029,13.3099,4.60147,2470.707,2023-11-16T06:37:14Z
2023-11-16T04:37:50Z,42.805,6.029,13.3095,4.60135,2470.67,2023-11-16T06:40:17Z
2023-11-16T04:40:53Z,42.805,6.029,13.3096,4.60142,2470.67,2023-11-16T06:43:21Z
2023-11-16T04:43:56Z,42.805,6.029,13.3095,4.60125,2470.684,2023-11-16T06:46:24Z
2023-11-16T04:46:59Z,42.805,6.029,13.3082,4.60147,2470.707,2023-11-16T06:49:27Z
2023-11-16T04:50:03Z,42.805,6.029,13.3094,4.60137,2470.684,2023-11-16T06:52:30Z
2023-11-16T04:53:06Z,42.805,6.029,13.3085,4.60139,2470.693,2023-11-16T06:55:33Z
2023-11-16T04:56:09Z,42.805,6.029,13.3084,4.60135,2470.707,2023-11-16T06:58:36Z
2023-11-16T04:59:12Z,42.805,6.029,13.3115,4.60146,2470.693,2023-11-16T07:01:39Z
2023-11-16T05:02:15Z,42.805,6.029,13.3113,4.60137,2470.684,2023-11-16T07:04:42Z
2023-11-16T05:05:18Z,42.805,6.029,13.3101,4.60142,2470.707,2023-11-16T07:07:45Z
2023-11-16T05:08:21Z,42.805,6.029,13.3086,4.60152,2470.73,2023-11-16T07:10:48Z
2023-11-16T05:11:24Z,42.805,6.029,13.3093,4.60135,2470.693,2023-11-16T07:13:51Z
2023-11-16T05:14:27Z,42.805,6.029,13.3082,4.60130,2470.73,2023-11-16T07:16:54Z
2023-11-16T05:17:30Z,42.805,6.029,13.3096,4.60146,2470.684,2023-11-16T07:19:58Z
2023-11-16T05:20:33Z,42.805,6.029,13.3091,4.60128,2470.73,2023-11-16T07:23:01Z
2023-11-16T05:23:36Z,42.805,6.029,13.3090,4.60139,2470.717,2023-11-16T07:26:04Z
2023-11-16T05:26:40Z,42.805,6.029,13.3089,4.60139,2470.754,2023-11-16T07:29:07Z
2023-11-16T05:29:43Z,42.805,6.029,13.3091,4.60140,2470.73,2023-11-16T07:32:10Z
2023-11-16T05:32:48Z,42.805,6.029,13.3083,4.60140,2470.73,2023-11-16T07:35:15Z
2023-11-16T05:35:51Z,42.805,6.029,13.3088,4.60155,2470.74,2023-11-16T07:38:18Z
2023-11-16T05:38:54Z,42.805,6.029,13.3088,4.60134,2470.777,2023-11-16T07:41:21Z
2023-11-16T05:41:57Z,42.805,6.029,13.3104,4.60135,2470.73,2023-11-16T07:44:24Z
2023-11-16T05:45:00Z,42.805,6.029,13.3092,4.60128,2470.74,2023-11-16T07:47:27Z
2023-11-16T05:48:03Z,42.805,6.029,13.3096,4.60150,2470.754,2023-11-16T07:50:30Z
2023-11-16T05:51:06Z,42.805,6.029,13.3096,4.60146,2470.763,2023-11-16T07:53:33Z
2023-11-16T05:54:09Z,42.805,6.029,13.3096,4.60129,2470.74,2023-11-16T07:56:36Z
2023-11-16T05:57:12Z,42.805,6.029,13.3102,4.60158,2470.777,2023-11-16T07:59:39Z
2023-11-16T06:00:15Z,42.805,6.029,13.3118,4.60138,2470.74,2023-11-16T08:02:43Z
2023-11-16T06:03:18Z,42.805,6.029,13.3101,4.60146,2470.777,2023-11-16T08:05:46Z
2023-11-16T06:06:21Z,42.805,6.029,13.3107,4.60148,2470.787,2023-11-16T08:08:49Z
2023-11-16T06:09:25Z,42.805,6.029,13.3108,4.60174,2470.777,2023-11-16T08:11:52Z
2023-11-16T06:12:28Z,42.805,6.029,13.3096,4.60134,2470.787,2023-11-16T08:14:55Z
2023-11-16T06:15:31Z,42.805,6.029,13.3085,4.60139,2470.8,2023-11-16T08:17:58Z
2023-11-16T06:18:34Z,42.805,6.029,13.3086,4.60156,2470.8,2023-11-16T08:21:01Z
2023-11-16T06:21:37Z,42.805,6.029,13.3094,4.60152,2470.787,2023-11-16T08:24:04Z
2023-11-16T06:24:40Z,42.805,6.029,13.3103,4.60153,2470.8,2023-11-16T08:27:07Z
2023-11-16T06:27:43Z,42.805,6.029,13.3101,4.60153,2470.787,2023-11-16T08:30:10Z
2023-11-16T06:30:46Z,42.805,6.029,13.3104,4.60157,2470.81,2023-11-16T08:33:13Z
2023-11-16T06:33:49Z,42.805,6.029,13.3123,4.60140,2470.787,2023-11-16T08:36:16Z
2023-11-16T06:36:52Z,42.805,6.029,13.3097,4.60140,2470.777,2023-11-16T08:39:20Z
2023-11-16T06:39:55Z,42.805,6.029,13.3093,4.60145,2470.81,2023-11-16T08:42:23Z
2023-11-16T06:42:58Z,42.805,6.029,13.3081,4.60150,2470.787,2023-11-16T08:45:26Z
2023-11-16T06:46:02Z,42.805,6.029,13.3079,4.60149,2470.824,2023-11-16T08:48:29Z
2023-11-16T06:49:05Z,42.805,6.029,13.3089,4.60152,2470.833,2023-11-16T08:51:32Z
2023-11-16T06:52:08Z,42.805,6.029,13.3093,4.60142,2470.81,2023-11-16T08:54:35Z
2023-11-16T06:55:11Z,42.805,6.029,13.3075,4.60190,2470.787,2023-11-16T08:57:38Z
2023-11-16T06:58:14Z,42.805,6.029,13.3108,4.60192,2470.847,2023-11-16T09:00:41Z
2023-11-16T07:01:17Z,42.805,6.029,13.3106,4.60224,2470.857,2023-11-16T09:03:44Z
2023-11-16T07:04:20Z,42.805,6.029,13.3101,4.60180,2470.871,2023-11-16T09:06:47Z
2023-11-16T07:07:23Z,42.805,6.029,13.3114,4.60192,2470.81,2023-11-16T09:09:50Z
2023-11-16T07:10:26Z,42.805,6.029,13.3091,4.60169,2470.847,2023-11-16T09:12:54Z
2023-11-16T07:13:29Z,42.805,6.029,13.3110,4.60162,2470.871,2023-11-16T09:15:57Z
2023-11-16T07:16:32Z,42.805,6.029,13.3098,4.60152,2470.871,2023-11-16T09:19:00Z
2023-11-16T07:19:35Z,42.805,6.029,13.3100,4.60159,2470.857,2023-11-16T09:22:03Z
2023-11-16T07:22:39Z,42.805,6.029,13.3106,4.60151,2470.833,2023-11-16T09:25:06Z
2023-11-16T07:25:42Z,42.805,6.029,13.3091,4.60157,2470.847,2023-11-16T09:28:09Z
2023-11-16T07:28:45Z,42.805,6.029,13.3100,4.60137,2470.857,2023-11-16T09:31:12Z
2023-11-16T07:31:46Z,42.805,6.029,13.3093,4.60145,2470.847,2023-11-16T09:34:14Z
2023-11-16T07:34:50Z,42.805,6.029,13.3087,4.60165,2470.88,2023-11-16T09:37:17Z
2023-11-16T07:37:53Z,42.805,6.029,13.3096,4.60167,2470.88,2023-11-16T09:40:20Z
2023-11-16T07:40:56Z,42.805,6.029,13.3109,4.60157,2470.88,2023-11-16T09:43:23Z
2023-11-16T07:43:59Z,42.805,6.029,13.3139,4.60143,2470.894,2023-11-16T09:46:26Z
2023-11-16T07:47:02Z,42.805,6.029,13.3127,4.60144,2470.88,2023-11-16T09:49:29Z
2023-11-16T07:50:05Z,42.805,6.029,13.3101,4.60164,2470.857,2023-11-16T09:52:32Z
2023-11-16T07:53:08Z,42.805,6.029,13.3109,4.60147,2470.894,2023-11-16T09:55:35Z
2023-11-16T07:56:11Z,42.805,6.029,13.3104,4.60150,2470.894,2023-11-16T09:58:38Z
2023-11-16T07:59:14Z,42.805,6.029,13.3102,4.60155,2470.871,2023-11-16T10:01:41Z
2023-11-16T08:02:17Z,42.805,6.029,13.3041,4.60151,2470.871,2023-11-16T10:04:45Z
2023-11-16T08:05:20Z,42.805,6.029,13.3058,4.60155,2470.908,2023-11-16T10:07:48Z
2023-11-16T08:08:23Z,42.805,6.029,13.3090,4.60146,2470.857,2023-11-16T10:10:51Z
2023-11-16T08:11:27Z,42.805,6.029,13.3031,4.60146,2470.88,2023-11-16T10:13:54Z
2023-11-16T08:14:30Z,42.805,6.029,13.3041,4.60195,2470.88,2023-11-16T10:16:57Z
2023-11-16T08:17:33Z,42.805,6.029,13.3031,4.60144,2470.894,2023-11-16T10:20:00Z
2023-11-16T08:20:36Z,42.805,6.029,13.3113,4.60175,2470.904,2023-11-16T10:23:03Z
2023-11-16T08:23:39Z,42.805,6.029,13.3034,4.60223,2470.917,2023-11-16T10:26:06Z
2023-11-16T08:26:42Z,42.805,6.029,13.3039,4.60134,2470.917,2023-11-16T10:29:09Z
2023-11-16T08:29:45Z,42.805,6.029,13.3036,4.60138,2470.917,2023-11-16T10:32:12Z
2023-11-16T08:32:48Z,42.805,6.029,13.3031,4.60165,2470.904,2023-11-16T10:35:15Z
2023-11-16T08:35:51Z,42.805,6.029,13.3033,4.60189,2470.88,2023-11-16T10:38:18Z
2023-11-16T08:38:54Z,42.805,6.029,13.3031,4.60150,2470.917,2023-11-16T10:41:22Z
2023-11-16T08:41:57Z,42.805,6.029,13.3035,4.60176,2470.904,2023-11-16T10:44:25Z
2023-11-16T08:45:00Z,42.805,6.029,13.3032,4.60191,2470.904,2023-11-16T10:47:28Z
2023-11-16T08:48:04Z,42.805,6.029,13.3051,4.60142,2470.917,2023-11-16T10:50:31Z
2023-11-16T08:51:07Z,42.805,6.029,13.3078,4.60176,2470.917,2023-11-16T10:53:34Z
2023-11-16T08:54:10Z,42.805,6.029,13.3067,4.60148,2470.917,2023-11-16T10:56:37Z
2023-11-16T08:57:13Z,42.805,6.029,13.3031,4.60221,2470.927,2023-11-16T10:59:40Z
2023-11-16T09:00:16Z,42.805,6.029,13.3031,4.60147,2470.94,2023-11-16T11:02:43Z
2023-11-16T09:03:19Z,42.805,6.029,13.3030,4.60154,2470.88,2023-11-16T11:05:46Z
2023-11-16T09:06:22Z,42.805,6.029,13.3035,4.60139,2470.927,2023-11-16T11:08:49Z
2023-11-16T09:09:25Z,42.805,6.029,13.3067,4.60151,2470.94,2023-11-16T11:11:52Z
2023-11-16T09:12:28Z,42.805,6.029,13.3126,4.60190,2470.904,2023-11-16T11:14:56Z
2023-11-16T09:15:31Z,42.805,6.029,13.3088,4.60167,2470.917,2023-11-16T11:17:59Z
2023-11-16T09:18:34Z,42.805,6.029,13.3076,4.60138,2470.904,2023-11-16T11:21:02Z
2023-11-16T09:21:38Z,42.805,6.029,13.3094,4.60157,2470.917,2023-11-16T11:24:05Z
2023-11-16T09:24:41Z,42.805,6.029,13.3094,4.60161,2470.917,2023-11-16T11:27:08Z
2023-11-16T09:27:44Z,42.805,6.029,13.3040,4.60171,2470.927,2023-11-16T11:30:11Z
2023-11-16T09:30:46Z,42.805,6.029,13.3056,4.60144,2470.894,2023-11-16T11:33:13Z
2023-11-16T09:33:49Z,42.805,6.029,13.3077,4.60162,2470.917,2023-11-16T11:36:16Z
2023-11-16T09:36:52Z,42.805,6.029,13.3101,4.60151,2470.904,2023-11-16T11:39:19Z
2023-11-16T09:39:55Z,42.805,6.029,13.3096,4.60167,2470.927,2023-11-16T11:42:22Z
2023-11-16T09:42:58Z,42.805,6.029,13.3093,4.60164,2470.904,2023-11-16T11:45:25Z
2023-11-16T09:46:01Z,42.805,6.029,13.3107,4.60144,2470.904,2023-11-16T11:48:28Z
2023-11-16T09:49:04Z,42.805,6.029,13.3102,4.60191,2470.917,2023-11-16T11:51:31Z
2023-11-16T09:52:07Z,42.805,6.029,13.3093,4.60196,2470.904,2023-11-16T11:54:34Z
2023-11-16T09:55:10Z,42.805,6.029,13.3100,4.60205,2470.88,2023-11-16T11:57:38Z
2023-11-16T09:58:13Z,42.805,6.029,13.3127,4.60139,2470.94,2023-11-16T12:00:41Z
2023-11-16T10:01:16Z,42.805,6.029,13.3123,4.60141,2470.917,2023-11-16T12:03:44Z
2023-11-16T10:04:20Z,42.805,6.029,13.3119,4.60146,2470.927,2023-11-16T12:06:47Z
2023-11-16T10:07:23Z,42.805,6.029,13.3113,4.60183,2470.917,2023-11-16T12:09:50Z
2023-11-16T10:10:26Z,42.805,6.029,13.3118,4.60218,2470.904,2023-11-16T12:12:53Z
2023-11-16T10:13:29Z,42.805,6.029,13.3131,4.60155,2470.927,2023-11-16T12:15:56Z
2023-11-16T10:16:32Z,42.805,6.029,13.3133,4.60148,2470.917,2023-11-16T12:18:59Z
2023-11-16T10:19:35Z,42.805,6.029,13.3139,4.60145,2470.894,2023-11-16T12:22:02Z
2023-11-16T10:22:38Z,42.805,6.029,13.3132,4.60132,2470.904,2023-11-16T12:25:05Z
2023-11-16T10:25:41Z,42.805,6.029,13.3128,4.60137,2470.917,2023-11-16T12:28:08Z
2023-11-16T10:28:44Z,42.805,6.029,13.3122,4.60148,2470.917,2023-11-16T12:31:12Z
2023-11-16T10:31:47Z,42.805,6.029,13.3094,4.60152,2470.871,2023-11-16T12:34:15Z
2023-11-16T10:34:50Z,42.805,6.029,13.3098,4.60160,2470.88,2023-11-16T12:37:18Z
2023-11-16T10:37:54Z,42.805,6.029,13.3105,4.60155,2470.917,2023-11-16T12:40:21Z
2023-11-16T10:40:57Z,42.805,6.029,13.3093,4.60162,2470.88,2023-11-16T12:43:24Z
2023-11-16T10:44:00Z,42.805,6.029,13.3085,4.60170,2470.894,2023-11-16T12:46:27Z
2023-11-16T10:47:03Z,42.805,6.029,13.3068,4.60152,2470.857,2023-11-16T12:49:30Z
2023-11-16T10:50:06Z,42.805,6.029,13.3082,4.60125,2470.894,2023-11-16T12:52:33Z
2023-11-16T10:53:09Z,42.805,6.029,13.3118,4.60123,2470.894,2023-11-16T12:55:36Z
2023-11-16T10:56:12Z,42.805,6.029,13.3122,4.60123,2470.88,2023-11-16T12:58:39Z
2023-11-16T10:59:15Z,42.805,6.029,13.3104,4.60129,2470.88,2023-11-16T13:01:42Z
2023-11-16T11:02:18Z,42.805,6.029,13.3096,4.60137,2470.833,2023-11-16T13:04:46Z
2023-11-16T11:05:21Z,42.805,6.029,13.3093,4.60132,2470.857,2023-11-16T13:07:49Z
2023-11-16T11:08:24Z,42.805,6.029,13.3089,4.60128,2470.857,2023-11-16T13:10:52Z
2023-11-16T11:11:27Z,42.805,6.029,13.3089,4.60127,2470.904,2023-11-16T13:13:55Z
2023-11-16T11:14:31Z,42.805,6.029,13.3131,4.60144,2470.88,2023-11-16T13:16:58Z
2023-11-16T11:17:34Z,42.805,6.029,13.3135,4.60135,2470.871,2023-11-16T13:20:01Z
2023-11-16T11:20:37Z,42.805,6.029,13.3137,4.60135,2470.871,2023-11-16T13:23:04Z
2023-11-16T11:23:40Z,42.805,6.029,13.3113,4.60160,2470.894,2023-11-16T13:26:07Z
2023-11-16T11:26:43Z,42.805,6.029,13.3106,4.60137,2470.833,2023-11-16T13:29:10Z
2023-11-16T11:29:46Z,42.805,6.029,13.3111,4.60149,2470.871,2023-11-16T13:32:13Z
2023-11-16T11:32:49Z,42.805,6.029,13.3110,4.60147,2470.847,2023-11-16T13:35:16Z
2023-11-16T11:35:52Z,42.805,6.029,13.3081,4.60135,2470.847,2023-11-16T13:38:19Z
2023-11-16T11:38:55Z,42.805,6.029,13.3069,4.60125,2470.871,2023-11-16T13:41:23Z
2023-11-16T11:41:58Z,42.805,6.029,13.3060,4.60171,2470.81,2023-11-16T13:44:26Z
2023-11-16T11:45:01Z,42.805,6.029,13.3072,4.60161,2470.847,2023-11-16T13:47:29Z
2023-11-16T11:48:05Z,42.805,6.029,13.3061,4.60158,2470.871,2023-11-16T13:50:32Z
2023-11-16T11:51:08Z,42.805,6.029,13.3078,4.60190,2470.824,2023-11-16T13:53:35Z
2023-11-16T11:54:11Z,42.805,6.029,13.3067,4.60211,2470.871,2023-11-16T13:56:38Z
2023-11-16T11:57:14Z,42.805,6.029,13.3087,4.60178,2470.847,2023-11-16T13:59:41Z
2023-11-16T12:00:17Z,42.805,6.029,13.3097,4.60181,2470.824,2023-11-16T14:02:44Z
2023-11-16T12:03:20Z,42.805,6.029,13.3067,4.60178,2470.824,2023-11-16T14:05:47Z
2023-11-16T12:06:23Z,42.805,6.029,13.3090,4.60197,2470.81,2023-11-16T14:08:50Z
2023-11-16T12:09:26Z,42.805,6.029,13.3072,4.60216,2470.81,2023-11-16T14:11:53Z
2023-11-16T12:12:29Z,42.805,6.029,13.3069,4.60196,2470.847,2023-11-16T14:14:57Z
2023-11-16T12:15:32Z,42.805,6.029,13.3076,4.60182,2470.833,2023-11-16T14:18:00Z
2023-11-16T12:18:35Z,42.805,6.029,13.3069,4.60203,2470.833,2023-11-16T14:21:03Z
2023-11-16T12:21:39Z,42.805,6.029,13.3055,4.60202,2470.847,2023-11-16T14:24:06Z
2023-11-16T12:24:42Z,42.805,6.029,13.3051,4.60210,2470.824,2023-11-16T14:27:09Z
2023-11-16T12:27:45Z,42.805,6.029,13.3061,4.60175,2470.824,2023-11-16T14:30:12Z
2023-11-16T12:30:48Z,42.805,6.029,13.3076,4.60213,2470.847,2023-11-16T14:33:15Z
2023-11-16T12:33:51Z,42.805,6.029,13.3066,4.60195,2470.824,2023-11-16T14:36:18Z
2023-11-16T12:36:54Z,42.805,6.029,13.3078,4.60225,2470.833,2023-11-16T14:39:21Z
2023-11-16T12:39:57Z,42.805,6.029,13.3067,4.60181,2470.847,2023-11-16T14:42:24Z
2023-11-16T12:43:00Z,42.805,6.029,13.3056,4.60203,2470.824,2023-11-16T14:45:27Z
2023-11-16T12:46:03Z,42.805,6.029,13.3048,4.60191,2470.833,2023-11-16T14:48:31Z
2023-11-16T12:49:06Z,42.805,6.029,13.3053,4.60184,2470.81,2023-11-16T14:51:34Z
2023-11-16T12:52:09Z,42.805,6.029,13.3055,4.60181,2470.81,2023-11-16T14:54:37Z
2023-11-16T12:55:12Z,42.805,6.029,13.3049,4.60201,2470.81,2023-11-16T14:57:40Z
2023-11-16T12:58:16Z,42.805,6.029,13.3049,4.60136,2470.777,2023-11-16T15:00:43Z
2023-11-16T13:01:19Z,42.805,6.029,13.3056,4.60143,2470.824,2023-11-16T15:03:46Z
2023-11-16T13:04:22Z,42.805,6.029,13.3058,4.60188,2470.787,2023-11-16T15:06:49Z
2023-11-16T13:07:25Z,42.805,6.029,13.3063,4.60171,2470.81,2023-11-16T15:09:52Z
2023-11-16T13:10:28Z,42.805,6.029,13.3061,4.60210,2470.787,2023-11-16T15:12:55Z
2023-11-16T13:13:31Z,42.805,6.029,13.3064,4.60161,2470.824,2023-11-16T15:15:58Z
2023-11-16T13:16:34Z,42.805,6.029,13.3063,4.60172,2470.787,2023-11-16T15:19:01Z
2023-11-16T13:19:37Z,42.805,6.029,13.3073,4.60195,2470.787,2023-11-16T15:22:05Z
2023-11-16T13:22:40Z,42.805,6.029,13.3093,4.60152,2470.8,2023-11-16T15:25:08Z
2023-11-16T13:25:43Z,42.805,6.029,13.3055,4.60203,2470.8,2023-11-16T15:28:11Z
2023-11-16T13:28:46Z,42.805,6.029,13.3072,4.60152,2470.8,2023-11-16T15:31:14Z
2023-11-16T13:31:50Z,42.805,6.029,13.3061,4.60178,2470.763,2023-11-16T15:34:17Z
2023-11-16T13:34:53Z,42.805,6.029,13.3063,4.60184,2470.777,2023-11-16T15:37:20Z
2023-11-16T13:37:56Z,42.805,6.029,13.3054,4.60195,2470.777,2023-11-16T15:40:23Z
2023-11-16T13:40:59Z,42.805,6.029,13.3064,4.60201,2470.754,2023-11-16T15:43:26Z
2023-11-16T13:44:02Z,42.805,6.029,13.3056,4.60215,2470.726,2023-11-16T15:46:29Z
2023-11-16T13:47:05Z,42.805,6.029,13.3066,4.60199,2470.8,2023-11-16T15:49:32Z
2023-11-16T13:50:08Z,42.805,6.029,13.3064,4.60162,2470.763,2023-11-16T15:52:35Z
2023-11-16T13:53:11Z,42.805,6.029,13.3069,4.60183,2470.8,2023-11-16T15:55:38Z
2023-11-16T13:56:14Z,42.805,6.029,13.3069,4.60167,2470.763,2023-11-16T15:58:42Z
2023-11-16T13:59:17Z,42.805,6.029,13.3052,4.60170,2470.754,2023-11-16T16:01:45Z
2023-11-16T14:02:20Z,42.805,6.029,13.3046,4.60181,2470.777,2023-11-16T16:04:48Z
2023-11-16T14:05:24Z,42.805,6.029,13.3060,4.60198,2470.777,2023-11-16T16:07:51Z
2023-11-16T14:08:27Z,42.805,6.029,13.3044,4.60155,2470.763,2023-11-16T16:10:54Z
2023-11-16T14:11:30Z,42.805,6.029,13.3048,4.60162,2470.777,2023-11-16T16:13:57Z
2023-11-16T14:14:33Z,42.805,6.029,13.3052,4.60180,2470.763,2023-11-16T16:17:00Z
2023-11-16T14:17:36Z,42.805,6.029,13.3046,4.60165,2470.73,2023-11-16T16:20:03Z
2023-11-16T14:20:39Z,42.805,6.029,13.3051,4.60157,2470.74,2023-11-16T16:23:06Z
2023-11-16T14:23:42Z,42.805,6.029,13.3066,4.60165,2470.777,2023-11-16T16:26:09Z
2023-11-16T14:26:45Z,42.805,6.029,13.3058,4.60157,2470.74,2023-11-16T16:29:12Z
2023-11-16T14:29:48Z,42.805,6.029,13.3058,4.60170,2470.777,2023-11-16T16:32:16Z
2023-11-16T14:32:51Z,42.805,6.029,13.3067,4.60167,2470.763,2023-11-16T16:35:19Z
2023-11-16T14:35:54Z,42.805,6.029,13.3059,4.60145,2470.754,2023-11-16T16:38:22Z
2023-11-16T14:38:57Z,42.805,6.029,13.3060,4.60176,2470.73,2023-11-16T16:41:25Z
2023-11-16T14:42:01Z,42.805,6.029,13.3061,4.60152,2470.763,2023-11-16T16:44:28Z
2023-11-16T14:45:04Z,42.805,6.029,13.3065,4.60175,2470.777,2023-11-16T16:47:31Z
2023-11-16T14:48:07Z,42.805,6.029,13.3065,4.60168,2470.74,2023-11-16T16:50:34Z
2023-11-16T14:51:10Z,42.805,6.029,13.3063,4.60173,2470.777,2023-11-16T16:53:37Z
2023-11-16T14:54:13Z,42.805,6.029,13.3054,4.60186,2470.754,2023-11-16T16:56:40Z
2023-11-16T14:57:16Z,42.805,6.029,13.3059,4.60167,2470.717,2023-11-16T16:59:43Z
2023-11-16T15:00:19Z,42.805,6.029,13.3065,4.60154,2470.754,2023-11-16T17:02:46Z